Regional Weather Roundup
Issued by NWS Newport/Morehead, NC

Current Version | Previous Version | Graphics & Text | Print | Product List | Glossary On
Versions: 1 2 3 4 5 6 7 8 9 10 11 12 13 14 15 16 17 18 19 20 21 22 23 24 25 26 27 28 29 30 31 32 33 34 35 36 37 38 39 40 41 42 43 44 45 46 47 48 49 50
260 ASUS42 KMHX 241725 RWRMHX WEATHER ROUNDUP FOR EASTERN NORTH CAROLINA NATIONAL WEATHER SERVICE NEWPORT/MOREHEAD CITY NC 100 PM EDT TUE APR 24 2018 NOTE: "FAIR" INDICATES FEW OR NO CLOUDS BELOW 12,000 FEET WITH NO SIGNIFICANT WEATHER AND/OR OBSTRUCTIONS TO VISIBILITY NCZ015>017-031-032-045>047-102-103-241800- NORTH COAST CITY SKY/WX TMP DP RH WIND PRES REMARKS EDENTON LGT RAIN 63 61 94 E13G21 30.04F ELIZABETH CITY LGT RAIN 60 59 96 E20G32 30.09F FOG KITTY HAWK DRIZZLE 56 55 98 E9G21 30.09F MANTEO CLOUDY 58 56 95 SE15G26 30.10F $$ NCZ045>047-081-094-103-104-241800- CENTRAL COAST CITY SKY/WX TMP DP RH WIND PRES REMARKS FRISCO LGT RAIN 64 62 93 SE33G43 30.04F FOG $$ NCZ095-097-098-100-101-241800- SOUTHERN COAST CITY SKY/WX TMP DP RH WIND PRES REMARKS BEAUFORT HVY RAIN 61 60 97 NE10 29.96F FOG CEDAR ISLAND NOT AVBL JACKSONVILLE CLOUDY 63 62 97 SE8 29.93F PINEY ISLAND NOT AVBL WILMINGTON CLOUDY 63 60 90 E13G18 29.92F $$ NCZ011>013-027>030-043-044-078>080-089-090>093-098-241800- COASTAL PLAIN CITY SKY/WX TMP DP RH WIND PRES REMARKS AHOSKIE HVY RAIN 58 58 100 E6 30.05F CLINTON CLOUDY 66 64 94 E7 29.91F ELIZABETHTOWN CLOUDY 69 64 84 MISG 29.89F GOLDSBORO PTSUNNY 64 61 88 SE8 29.91F GREENVILLE RAIN 61 61 100 E8 29.98F HAVELOCK LGT RAIN 63 62 97 SE13 29.98F KENANSVILLE CLOUDY 63 61 94 SE5 29.94F KINSTON PTSUNNY 63 61 94 E10 29.94F NEW BERN HVY RAIN 60 60 100 SE6 29.98F FOG RICHLANDS CLOUDY 62 60 93 E7 29.94F ROCKY MOUNT LGT RAIN 60 59 96 E9 29.94F FOG WASHINGTON RAIN 61 60 97 E12G18 29.98F WHITEVILLE CLOUDY 70 67 90 SE10 29.88F $$ AMZ130-135-150-152-154-156-158-170-250-252-270-ANZ085-086-088-633-658-670-241800- MARINE OBSERVATIONS STATION/POSITION TIME TEMP WIND PRES WAVE SWELL AIR SEA DIR/SP/G HT/PER HT/PER (UTC) (F) (DEG/KT/KT) (MB) (FT/S) (FT/S) CHESAPEAKE LIGHT NOT AVBL 64 E VA BEACH 1650 55 50 110/ 12/ 14 1021.8 8/ 8 7/ 8 DUCK 1700 56 54 100/ 23/ 25 1018.8 2 E DUCK 1700 52 N/A 7/ 8 2/11 OREGON INLET 1700 56 54 120/ 10/ 15 1018.8 13E OREGON INLT 1648 51 N/A 11/ 9 10/ 9 HATTERAS CG 1700 63 62 130/ 18/ 27 1016.9 DIAMOND BUOY 1710 67 71 130/ 29/ 39 1017.5 CAPE LOOKOUT 1600 120/ 27/ 32 1016.0 BEAUFORT LAB 1700 61 63 30/ 7/ 10 1015.1 30 SE NEW RVR IN 1708 61 65 110/ 10/ 16 1013.5 30 SE NEW RVR IN 1700 65 N/A 15/10 5/11 27 SE WRIGHTSVLE 1708 63 65 120/ 16/ 25 1014.2 5 SE WRIGHTSVLE NOT AVBL 225 S CAPE HAT 1710 70 73 130/ 31/ 39 1015.6 41 SE CHARLESTON 1710 69 220/ 12/ 16 1012.0 $$

USA.gov is the U.S. government's official web portal to all federal, state and local government web resources and services.